Location: Champs
(48.8539°N, 2.6040°E)
Time: 06:05:28
(UTC+00:00)

Cosmos 2056 Rocket - Pass Details

Date: 26 October 2021
Orbit: 741 x 801 km, 74.0° (Epoch: 04 December)

Event Time Altitude Azimuth Distance (km) Brightness Sun altitude
Rises 04:42:20 0° 338° (NNW) 3,213 6.5 -17.8°
Reaches altitude 10° 04:44:43 10° 341° (NNW) 2,292 5.8 -17.4°
Maximum altitude 04:49:54 68° 64° (ENE) 826 3.8 -16.5°
Drops below altitude 10° 04:55:07 10° 148° (SSE) 2,314 6.4 -15.7°
Sets 04:57:32 0° 151° (SSE) 3,247 7.2 -15.3°
